Theta_e
312 311 314 316 320 324 322 320 318 320 319 316 316 316 316 316 316 317 317 316 313 313 315 314 312 312 315 315 320 335 343 342 344 344 343 343 341 339 338 339 338 338 336 331 331 333 335 335 334 333 333 336 334 332 333 330 329 336 337 337 337 336 333 330 331 332 331 331 330 329 329 329 328 328 328 329 329 328 328 329 330 331 331 331 331 331
317 312 317 323 323 324 326 323 317 318 317 314 315 316 317 317 318 318 316 318 315 314 317 315 312 311 316 317 320 333 344 342 343 344 342 343 341 339 339 339 339 337 334 332 332 331 333 334 333 332 331 332 332 331 332 331 333 337 337 337 336 332 329 328 328 328 328 328 327 328 328 328 327 327 327 328 327 327 328 329 330 330 329 330 330 331
318 316 321 323 319 320 325 325 319 316 318 319 317 316 318 318 317 316 316 321 318 313 316 316 313 312 319 322 320 331 342 340 340 340 341 341 341 340 339 339 338 337 336 336 334 331 330 332 332 332 331 332 333 332 332 332 335 337 336 336 333 329 328 327 327 326 326 326 326 326 326 328 327 327 327 326 325 325 327 327 328 328 328 328 329 329
315 317 320 317 317 318 320 325 324 319 320 323 320 317 319 317 313 315 319 323 321 316 316 318 318 319 324 324 316 322 331 333 337 339 340 340 340 340 338 337 338 337 337 337 336 332 329 330 330 330 330 332 332 331 331 333 335 336 335 333 330 328 327 327 326 325 324 325 326 326 327 328 327 326 327 326 325 324 325 325 325 326 326 326 326 326
314 315 316 316 319 319 316 322 325 321 321 325 324 320 320 318 315 315 319 327 329 322 318 324 325 320 324 323 315 321 324 325 336 341 342 341 339 338 337 337 338 337 336 335 336 333 329 328 328 329 330 330 330 331 332 334 335 335 333 330 328 326 326 325 324 323 323 324 325 327 328 328 327 327 327 326 325 323 323 322 322 323 323 323 323 323
314 313 314 316 318 317 316 321 323 321 320 323 326 323 320 320 318 317 320 329 332 321 315 320 320 319 329 329 321 327 326 322 333 342 343 342 339 339 339 339 337 336 335 334 333 332 329 327 327 328 329 330 330 331 332 334 335 334 330 328 326 325 324 323 323 322 322 323 324 327 328 328 326 325 324 324 322 321 321 321 320 320 321 320 321 320
315 312 312 316 318 317 315 318 323 322 319 320 325 324 319 319 319 320 322 323 324 320 317 319 321 322 329 327 321 325 328 326 331 336 338 340 340 338 338 338 337 336 335 334 332 331 330 327 326 326 329 330 330 330 332 334 334 331 328 327 324 322 322 322 322 321 320 322 324 326 327 327 325 323 322 321 320 319 319 320 320 319 319 319 319 319
316 313 315 319 322 320 316 320 323 321 319 321 323 319 318 319 319 325 327 322 322 321 321 328 330 324 321 324 324 322 325 328 330 333 336 338 339 338 338 336 335 335 334 334 333 332 331 327 325 326 328 329 330 330 331 332 332 330 327 326 323 321 321 321 321 320 320 320 323 326 327 325 323 322 321 320 319 319 319 319 319 318 318 318 318 319
317 314 317 321 324 321 319 325 323 317 318 324 323 317 319 320 322 331 330 326 327 320 319 330 328 319 325 335 331 322 322 324 327 332 334 336 337 335 336 335 334 334 333 332 332 332 329 327 326 326 328 329 330 330 330 330 329 328 327 325 323 320 320 320 320 319 320 320 322 325 325 323 321 321 320 319 319 319 318 318 318 318 318 318 318 318
315 313 317 319 320 322 324 325 319 316 318 320 318 316 318 321 327 335 330 326 330 322 319 327 321 315 327 340 333 318 316 322 328 330 328 331 334 333 332 333 332 332 332 332 332 330 327 326 327 326 327 328 329 329 329 329 328 327 326 325 322 321 319 320 321 320 320 320 322 325 324 322 320 319 318 319 318 318 318 318 318 317 317 317 317 317
315 315 316 316 316 320 322 317 311 314 314 313 318 319 318 324 330 336 335 327 323 322 325 327 324 317 321 334 333 320 316 321 325 327 325 325 328 331 331 331 330 331 331 332 333 330 324 324 327 325 326 327 329 329 329 327 327 326 325 324 323 322 320 321 322 321 320 320 323 323 324 322 320 318 318 318 318 318 318 317 316 317 316 317 316 316
316 313 314 316 316 315 315 312 308 311 313 314 323 322 316 323 327 329 333 326 319 324 328 327 324 317 318 327 326 323 324 323 321 322 324 324 325 329 330 329 329 329 330 331 332 331 326 324 325 324 325 326 327 330 329 328 328 326 325 323 323 322 322 323 322 322 320 321 323 323 323 321 319 318 316 315 317 317 317 316 315 316 316 315 315 316
319 316 315 315 316 313 312 314 309 310 317 318 321 322 318 320 322 322 325 323 323 325 322 322 322 317 323 328 318 318 320 318 317 317 317 318 318 322 328 327 327 328 329 329 329 328 327 325 321 321 324 325 326 329 330 329 329 327 326 323 322 322 322 323 322 321 321 321 322 322 321 321 319 317 314 312 315 316 317 316 315 315 315 315 315 316
318 320 316 311 314 314 314 316 311 311 316 315 317 321 320 320 318 319 321 319 321 323 319 319 319 317 323 323 315 317 316 314 317 317 316 316 313 318 327 328 327 327 327 327 326 326 326 323 319 319 322 322 323 326 328 330 330 328 327 324 322 321 321 322 321 321 321 321 321 321 321 320 319 316 313 311 312 314 316 316 316 315 315 315 314 315
317 320 319 314 313 313 312 315 316 318 316 313 315 316 318 323 322 319 321 321 319 321 321 316 314 319 323 317 314 317 318 319 322 322 324 323 319 323 329 328 327 326 326 327 328 331 330 324 321 322 323 323 323 323 325 328 329 329 328 325 323 321 320 321 321 321 321 320 320 320 320 319 318 316 314 313 311 313 315 316 316 316 315 315 313 313
313 317 323 317 311 310 311 312 312 315 313 311 312 313 315 321 326 320 317 322 324 323 322 316 315 323 323 317 317 322 324 325 326 327 328 327 325 326 327 326 325 325 326 328 331 336 333 322 321 323 323 323 324 323 324 325 327 329 328 326 325 323 321 320 320 321 319 319 319 319 319 318 316 315 315 314 312 312 315 316 316 316 315 314 313 312
312 318 323 315 311 310 311 312 310 311 314 312 309 314 316 315 324 324 314 317 323 322 320 317 317 322 321 316 317 325 330 327 326 327 328 328 327 328 327 326 325 325 326 328 332 338 333 322 321 323 323 323 324 323 323 323 326 329 329 327 325 323 322 319 319 318 317 318 318 318 318 318 316 316 316 316 313 312 314 315 315 315 313 312 313 313
317 322 322 314 311 311 309 309 310 309 313 315 312 314 313 310 318 325 322 322 321 319 319 317 315 319 322 322 320 324 329 327 326 327 326 328 328 328 328 326 325 325 326 328 331 332 328 322 320 322 322 322 322 321 321 323 326 329 329 329 326 324 322 319 318 318 318 318 318 317 317 318 317 315 314 316 315 313 314 313 314 315 312 311 312 312
316 320 324 316 311 312 312 311 311 310 309 312 314 311 311 314 316 317 321 323 319 316 317 315 314 317 320 321 319 319 323 324 325 326 325 327 328 328 328 326 326 326 325 327 326 325 323 320 320 322 321 321 321 320 321 323 326 328 329 329 328 326 322 319 317 317 317 319 319 318 317 318 318 314 312 315 317 315 314 312 312 313 311 310 310 311
317 317 320 316 309 311 314 315 317 316 309 308 311 311 314 321 319 316 318 321 321 320 317 314 316 319 320 318 315 315 317 318 319 323 325 325 326 328 327 327 327 325 324 324 324 324 322 318 319 322 322 322 322 321 320 323 325 326 327 328 327 324 320 318 317 316 317 319 318 317 316 315 317 316 314 315 317 316 315 313 311 311 310 309 309 309
317 311 317 321 314 311 313 314 317 318 312 311 316 316 315 315 312 313 314 314 319 325 323 318 319 322 319 314 313 314 315 315 315 319 324 325 324 326 325 327 327 325 324 323 322 325 321 316 318 322 322 321 322 321 321 323 324 325 326 325 324 322 319 319 318 316 318 319 317 316 315 313 314 316 316 317 317 317 315 314 313 311 310 309 309 309
317 313 324 328 318 312 310 308 310 312 312 316 318 315 313 314 313 313 311 310 317 323 322 320 322 323 317 311 311 312 312 314 313 314 323 325 323 324 322 323 324 323 324 322 320 322 318 313 315 319 321 322 321 321 322 323 323 323 323 323 322 321 320 320 318 317 317 318 317 315 313 314 314 315 317 318 318 318 316 315 315 314 313 311 310 309
323 325 326 319 313 311 309 309 309 307 308 313 314 311 313 315 317 324 323 317 317 315 313 318 324 321 313 310 311 310 311 315 314 315 323 324 322 323 322 322 322 322 322 321 319 319 315 313 315 318 321 322 322 322 322 322 323 323 322 322 321 320 320 320 319 317 317 318 317 315 314 314 315 316 317 318 317 318 318 317 317 315 314 313 312 311
322 325 319 313 315 316 313 314 313 308 309 312 311 311 312 310 315 328 330 325 322 317 314 320 324 319 313 310 310 309 310 313 314 318 324 324 322 323 323 322 322 321 320 318 317 316 313 312 314 315 316 317 320 322 322 322 322 322 321 321 321 320 319 320 319 317 318 318 317 316 314 314 315 316 317 317 317 318 318 317 317 317 315 314 314 313
314 316 317 315 315 314 312 313 315 313 312 312 310 311 310 311 317 319 318 324 324 315 315 322 324 320 315 309 307 307 309 311 313 316 320 322 322 322 321 321 320 319 317 316 316 317 315 312 310 309 309 310 313 317 320 322 322 321 321 321 321 320 319 319 319 318 318 318 317 316 314 314 315 316 316 317 317 318 317 317 317 317 316 315 314 314
316 316 323 322 315 312 313 316 320 317 311 309 310 311 310 312 315 310 314 328 324 310 315 326 325 320 314 309 307 307 307 310 311 312 314 316 317 318 317 317 315 313 313 314 314 315 314 310 307 306 306 306 308 312 316 319 321 321 321 321 321 320 320 319 319 318 318 318 317 316 315 315 315 316 317 318 318 318 317 317 317 317 317 315 314 314
323 315 317 319 314 312 314 318 317 315 312 310 309 310 313 314 317 318 320 325 322 315 316 318 318 319 315 308 307 306 306 309 310 310 311 311 312 313 312 311 310 309 308 308 308 309 308 307 305 304 304 304 306 310 313 316 318 320 321 322 322 321 321 321 320 319 319 318 317 316 317 317 316 316 317 317 317 318 317 316 317 317 316 316 315 315
332 316 312 314 310 306 309 310 309 311 313 313 311 311 315 319 324 325 316 312 317 323 317 312 316 319 312 306 306 306 306 308 309 309 310 309 309 309 308 308 307 306 306 306 305 305 305 305 304 302 302 302 303 306 310 313 315 317 319 321 322 322 322 322 322 321 319 318 317 317 317 318 317 317 317 316 316 317 317 316 317 316 316 316 316 316
331 315 310 313 310 307 307 307 309 313 313 311 312 314 316 321 324 322 315 311 315 323 319 314 314 313 307 305 306 305 305 308 309 308 308 307 307 306 306 307 306 306 306 305 305 305 305 305 304 302 302 302 302 303 304 308 312 314 317 318 319 320 321 321 321 320 319 318 318 318 319 318 318 317 317 317 317 317 317 316 316 316 316 316 315 315
324 315 310 312 311 308 308 308 309 312 311 309 309 309 311 316 316 315 314 309 310 315 312 309 310 307 304 304 304 304 305 306 306 306 307 307 306 305 305 305 305 305 305 305 305 305 305 304 303 302 303 302 302 302 302 303 306 310 314 316 317 317 318 319 319 319 319 319 318 319 319 319 319 318 318 318 318 317 317 317 317 317 316 315 315 315
320 317 313 316 315 308 308 311 310 309 311 311 310 308 309 312 312 311 310 308 310 310 305 307 310 306 303 303 303 303 303 302 302 303 304 305 305 304 303 303 303 303 303 304 305 305 305 303 302 302 303 303 303 303 303 303 304 305 309 313 315 317 317 316 317 317 318 318 319 319 319 319 318 318 318 318 318 318 318 318 317 317 316 316 316 315
321 315 312 318 318 309 307 311 311 310 310 311 313 312 312 313 314 311 308 308 311 310 307 310 312 306 303 303 302 301 300 300 300 300 300 301 302 302 301 301 300 300 300 301 302 303 304 304 302 302 303 303 303 304 304 304 304 304 304 307 311 315 317 317 316 316 316 318 318 318 318 318 318 318 318 318 318 318 317 317 317 317 317 317 316 316
318 312 310 316 316 309 307 309 310 311 311 314 314 310 307 308 308 308 306 305 306 307 311 314 310 305 304 303 301 300 300 299 300 300 299 299 299 299 300 299 299 299 299 299 299 300 302 302 302 302 303 304 303 303 304 304 304 304 304 304 305 308 312 314 316 316 316 317 318 318 318 318 318 318 318 318 318 318 317 317 317 317 317 316 316 316
315 312 312 316 316 310 308 308 309 311 313 312 307 305 305 306 306 307 306 304 302 304 307 307 304 302 303 301 300 300 299 299 299 298 299 299 298 298 298 298 298 298 298 298 298 298 298 299 300 301 302 302 302 302 303 303 304 304 304 304 304 304 305 307 309 312 314 316 317 317 317 318 318 318 318 317 317 317 317 317 317 316 316 316 317 317
318 316 314 317 318 312 308 309 310 311 311 307 303 303 305 304 303 303 302 301 302 303 302 302 302 302 302 300 299 299 298 298 298 297 297 298 298 298 298 297 298 299 299 299 299 297 297 297 297 298 299 300 299 300 301 302 302 303 303 304 304 304 304 304 304 306 308 311 314 315 316 317 317 317 317 317 317 317 317 317 316 316 317 317 317 317
317 319 314 312 311 309 308 310 311 308 304 303 302 302 303 303 303 305 305 302 302 302 302 302 302 302 302 301 301 300 299 298 297 296 296 297 297 298 298 298 298 299 299 298 298 296 296 296 297 297 298 298 298 298 299 299 300 301 301 302 304 304 304 304 305 304 305 306 308 310 312 314 314 315 316 316 317 317 317 317 316 317 317 317 317 317
313 317 315 310 307 308 310 309 307 307 305 304 303 302 302 302 303 306 307 302 300 302 302 301 302 301 301 301 301 301 301 302 301 298 296 297 298 297 297 296 296 297 296 295 296 296 296 297 297 297 297 298 298 298 298 298 298 299 300 301 302 303 304 304 304 305 305 305 305 306 308 310 312 313 314 316 316 316 316 316 317 317 316 316 316 315
308 309 313 311 305 306 312 310 308 312 313 308 305 303 302 301 300 304 307 302 300 301 300 300 302 301 300 301 301 301 303 304 304 300 297 297 297 296 295 295 295 295 295 295 296 296 297 297 297 297 297 297 297 298 298 298 298 298 299 299 300 301 302 303 304 304 305 305 305 305 306 308 311 312 313 314 315 314 314 314 314 313 313 313 313 313
308 309 313 313 307 306 314 316 313 314 312 306 304 304 302 301 302 305 308 305 301 299 298 299 300 300 300 301 302 304 307 307 306 303 299 296 296 295 295 295 295 295 296 296 296 297 297 297 297 297 297 297 297 298 297 297 298 298 298 298 299 299 300 301 302 303 304 304 304 305 305 307 309 310 310 311 311 310 310 310 309 308 309 309 310 310
310 311 312 312 309 308 312 313 309 307 305 301 302 305 302 300 301 305 311 308 301 297 297 298 300 300 300 301 302 304 306 305 304 302 298 295 294 295 295 295 295 295 296 296 296 296 297 297 297 297 297 298 297 297 298 298 298 298 298 298 298 299 300 300 301 301 303 304 304 304 304 306 308 308 307 307 307 307 307 306 306 306 306 307 307 307
310 309 306 307 309 310 312 311 306 304 303 300 301 302 299 298 302 308 310 304 298 297 297 298 299 300 300 301 303 302 300 300 301 300 297 295 295 295 295 295 295 295 295 295 296 296 296 296 296 297 297 298 298 298 298 298 298 298 298 297 298 298 298 299 300 300 301 302 303 304 304 305 306 307 306 306 306 306 306 306 306 305 305 306 306 306
307 307 305 305 306 306 307 308 306 305 302 299 299 300 299 302 307 306 302 298 297 298 297 297 298 298 298 300 300 299 298 299 300 299 298 296 295 294 294 294 294 295 295 295 295 295 295 295 295 296 296 297 297 298 298 298 298 298 298 297 297 298 298 298 299 299 300 301 302 303 304 304 304 305 306 306 305 305 305 305 305 306 306 306 305 304
304 306 306 303 302 303 305 306 308 306 300 297 298 299 301 304 304 299 296 297 299 299 298 298 298 298 298 298 298 298 300 300 300 299 298 297 295 293 293 293 293 294 294 294 294 293 293 294 294 294 294 295 296 296 297 297 297 297 297 297 298 298 298 298 298 298 299 299 301 302 303 303 304 305 305 306 306 305 306 305 305 306 306 306 305 305
302 306 307 302 301 305 309 307 304 301 297 297 299 300 299 300 298 298 299 299 299 300 300 300 300 299 298 298 298 299 299 299 299 298 297 297 295 292 292 293 293 293 293 293 293 292 292 292 292 292 293 293 293 294 295 296 297 297 297 297 298 298 298 298 298 298 298 298 299 301 302 302 303 303 304 304 304 305 305 305 306 306 306 306 306 306
301 303 304 301 299 301 304 301 299 298 297 297 299 298 298 298 299 300 301 299 299 300 299 299 300 300 299 298 298 299 299 298 298 297 295 295 293 291 291 292 292 292 292 291 291 291 291 291 291 291 291 291 292 292 293 294 295 296 296 297 297 297 297 297 297 298 298 298 298 299 301 301 302 303 303 303 303 303 304 304 304 305 306 306 306 306
298 299 301 301 298 298 299 298 298 299 298 298 299 299 299 299 300 301 300 300 300 300 298 299 300 300 300 299 298 298 299 298 297 296 295 294 292 290 290 290 290 290 291 290 290 291 290 290 291 290 290 291 291 291 291 292 293 294 295 295 296 296 296 296 296 297 297 298 298 298 299 300 301 302 302 302 303 303 303 303 303 304 304 305 305 305
297 298 300 300 299 300 300 299 298 298 298 298 299 298 298 298 299 300 300 300 300 299 298 299 299 299 298 298 298 298 297 296 296 295 294 294 292 289 289 289 290 290 290 290 290 290 290 290 290 290 290 290 290 290 291 291 291 292 292 292 293 294 294 294 295 295 296 297 298 298 298 299 299 300 301 302 302 302 303 302 302 303 303 303 303 304
297 298 299 299 299 299 299 298 298 298 298 299 298 297 297 298 298 298 299 299 299 298 296 295 295 296 296 296 296 296 296 295 295 294 294 292 290 288 289 289 289 289 289 289 289 289 289 289 289 289 289 289 290 290 290 290 290 290 290 291 291 292 292 293 293 294 295 296 297 298 298 298 298 299 300 301 301 301 302 301 301 301 302 303 303 303
297 298 297 297 298 297 296 297 297 298 298 299 299 299 299 299 298 298 299 298 298 298 296 293 292 293 294 293 292 293 295 295 292 292 292 291 289 288 289 289 289 289 289 289 289 289 289 289 289 289 289 289 289 289 290 290 290 290 290 290 291 291 292 293 294 294 295 296 297 298 298 298 298 298 299 300 300 301 301 301 300 300 301 301 302 303
298 297 296 297 299 299 298 298 298 299 300 299 298 299 299 299 299 299 299 300 300 299 298 296 294 291 292 292 291 291 294 294 291 289 290 290 288 288 289 289 289 289 289 289 290 290 289 289 289 289 289 289 289 289 289 289 289 290 290 290 290 291 292 293 293 294 294 296 297 297 297 298 299 299 299 299 300 300 300 300 301 300 300 301 301 302
297 297 298 301 302 300 300 298 297 299 300 298 298 299 299 298 299 300 299 300 300 296 294 295 296 294 293 293 292 291 292 291 290 289 288 288 289 290 289 289 289 290 290 290 290 289 289 289 289 289 290 290 290 290 290 290 290 290 290 289 290 290 291 292 292 292 293 294 296 297 297 298 299 299 299 299 299 300 300 300 300 300 300 301 301 302
Wind_Speed
3 3 1 4 6 6 7 6 6 5 6 6 4 3 3 3 5 5 7 5 3 4 6 8 7 4 6 8 7 6 6 7 6 6 6 6 7 7 8 7 7 6 5 6 10 15 17 14 17 22 23 24 22 22 25 24 24 23 22 21 22 23 23 23 23 22 21 21 19 17 15 12 9 7 5 4 3 2 1 2 3 3 3 2 3 4
5 4 5 8 8 7 6 5 5 5 5 3 2 1 2 4 5 6 6 5 1 5 5 4 6 5 7 7 4 6 8 9 11 11 9 9 8 6 8 9 7 5 3 6 8 12 18 16 19 23 22 24 25 23 25 28 28 25 22 22 23 24 24 23 22 21 20 19 18 17 16 13 11 8 6 5 3 3 3 3 4 3 3 3 3 3
4 2 9 9 6 5 4 5 5 4 4 3 2 1 3 3 4 6 5 4 2 3 4 2 6 3 6 5 3 7 9 8 9 10 10 11 10 8 10 10 8 6 5 6 7 10 16 17 20 23 24 27 28 26 28 29 28 25 23 24 25 26 26 24 22 20 19 18 16 14 13 13 11 10 8 5 3 2 3 5 6 6 6 5 5 5
0 5 8 5 7 7 3 4 6 4 3 3 4 3 3 3 1 3 5 4 3 1 0 3 6 2 5 3 2 5 3 1 1 5 5 7 9 7 8 7 7 8 7 7 7 8 12 15 19 21 23 27 27 26 27 26 26 25 25 26 28 28 25 24 22 20 19 17 16 13 12 12 10 9 8 6 4 3 3 5 7 8 8 8 7 7
5 6 2 6 7 7 5 3 6 5 1 3 4 5 4 4 4 5 4 5 4 2 3 5 5 4 4 2 2 3 1 1 2 5 5 5 5 4 5 6 7 8 7 8 9 8 9 13 17 19 22 24 24 25 26 27 27 27 27 28 29 27 25 24 23 21 19 18 17 15 13 11 8 7 7 7 7 5 4 3 4 5 6 6 5 5
7 6 5 6 5 6 6 4 5 7 3 3 4 9 9 6 6 5 3 5 5 3 3 5 4 2 5 2 3 5 2 2 1 4 7 6 5 5 6 7 8 7 7 7 8 9 9 11 14 17 21 22 22 26 28 28 29 28 29 29 27 26 25 24 22 20 18 18 18 17 16 13 10 9 8 8 7 7 6 4 3 2 2 2 2 3
4 3 4 5 5 5 5 3 6 8 5 1 5 8 8 6 4 2 1 3 2 1 2 4 4 2 5 2 1 6 4 2 3 3 5 5 6 6 6 7 7 7 7 6 6 7 9 12 15 17 21 24 25 27 29 30 30 30 30 29 27 26 25 24 22 20 18 18 18 18 18 16 14 13 11 9 7 7 6 5 4 3 3 3 2 2
4 2 3 4 5 5 3 4 6 8 8 2 5 5 7 6 4 2 4 4 2 2 3 5 4 4 2 2 3 2 2 1 5 5 5 5 7 7 6 6 7 8 8 7 7 8 9 13 17 19 23 25 26 28 30 32 33 33 32 30 28 27 26 25 23 21 19 18 19 20 19 17 16 15 13 11 10 8 7 6 5 4 4 4 3 3
3 4 2 4 5 3 4 5 6 10 6 6 5 7 6 6 5 4 6 3 1 1 2 7 4 4 2 5 3 3 4 1 6 7 7 7 7 7 7 7 7 7 7 7 7 8 10 14 19 22 24 25 27 30 34 35 35 34 32 31 30 28 27 26 24 23 20 19 21 21 20 19 18 16 14 13 12 10 8 7 6 5 4 4 3 3
3 5 5 5 4 4 6 5 8 10 4 4 6 6 5 6 5 4 5 3 3 3 2 6 4 3 3 5 4 3 3 3 7 7 7 7 6 7 7 6 7 6 6 6 6 7 10 14 18 20 22 25 27 30 31 33 34 34 32 32 31 30 29 28 26 24 22 21 22 23 22 21 19 17 16 15 13 11 10 9 8 7 6 5 4 4
3 2 3 3 3 5 4 2 5 6 4 4 6 6 6 6 5 4 3 4 4 2 5 7 2 3 1 5 3 1 1 3 5 5 5 6 6 7 7 6 7 7 6 6 5 6 9 13 16 16 19 22 25 26 26 28 31 32 32 32 31 30 30 29 28 26 24 24 24 24 23 22 20 19 18 17 15 14 12 11 10 9 8 7 5 5
5 3 2 3 3 4 5 4 1 1 3 5 5 5 4 4 5 4 4 4 4 2 5 6 3 4 2 4 3 2 5 5 4 6 6 7 10 10 9 8 8 7 6 6 6 6 7 9 12 15 18 20 21 22 23 26 28 29 31 30 29 29 30 30 28 27 25 26 26 25 24 23 21 19 18 18 18 17 15 14 13 11 10 8 8 8
4 3 4 5 3 4 6 4 3 5 5 5 5 5 4 2 2 1 3 1 2 4 3 3 3 2 3 5 3 3 7 6 6 7 7 7 8 8 8 8 7 6 7 6 5 4 4 4 3 2 7 12 18 24 26 26 26 27 28 28 26 26 27 27 27 27 26 26 26 25 24 22 20 19 17 17 18 17 17 16 15 13 12 11 11 11
4 5 4 3 3 2 6 5 2 0 1 4 5 4 4 3 2 1 2 0 1 3 2 4 2 1 3 4 2 4 6 6 7 7 8 8 8 7 6 5 5 6 6 5 5 5 5 7 11 15 15 13 9 8 17 25 27 26 25 24 23 22 23 25 26 27 28 28 27 26 23 21 19 17 16 16 16 17 17 17 16 14 13 13 12 12
1 4 3 3 2 1 5 5 6 5 3 3 4 5 5 4 4 3 3 2 2 2 2 4 1 3 3 3 5 6 5 4 4 4 5 4 4 4 5 7 7 6 6 6 6 6 6 8 11 11 13 18 22 18 13 16 21 23 22 22 22 22 23 26 29 30 30 28 26 24 22 20 18 16 15 14 13 15 16 16 15 15 13 13 13 12
3 4 6 4 1 2 4 3 5 6 3 1 2 6 3 4 5 3 2 4 4 2 0 2 2 3 4 3 7 5 4 5 5 5 5 4 3 4 6 6 7 7 7 7 7 7 7 8 11 11 5 8 16 20 21 19 17 19 20 20 22 23 24 26 27 26 24 22 20 19 19 19 17 14 14 13 12 14 15 15 14 14 13 13 13 12
2 4 6 3 2 2 4 3 4 4 3 1 2 3 4 4 7 6 2 1 3 4 1 1 2 4 2 1 5 6 6 7 7 7 6 5 6 7 6 5 7 7 7 6 6 6 5 5 8 13 17 22 27 28 26 22 20 19 19 21 21 22 23 24 25 23 22 23 23 19 16 16 16 12 11 13 14 14 15 14 14 14 13 13 14 14
4 3 6 1 1 2 1 4 4 2 4 4 3 5 3 3 5 5 3 3 4 3 2 2 1 4 2 1 5 9 7 7 8 8 6 4 5 6 5 5 6 7 7 6 5 2 1 6 13 16 19 22 24 23 22 22 21 21 21 22 23 23 25 24 22 18 17 19 20 17 13 13 13 8 6 11 16 16 16 15 14 14 13 13 13 14
4 1 7 2 2 4 4 6 4 5 3 4 4 4 3 3 2 2 3 2 2 3 2 3 1 2 2 2 6 7 6 7 7 7 7 6 5 5 4 5 5 5 5 6 5 2 4 0 2 4 6 13 18 19 20 20 21 21 23 24 25 26 24 19 16 13 14 15 14 14 13 12 12 10 10 14 19 21 19 17 15 14 13 12 12 13
3 2 4 3 1 2 5 4 2 3 4 4 3 2 2 2 4 2 3 3 4 4 2 1 2 2 4 4 6 6 7 7 6 6 5 5 5 5 4 4 5 5 5 5 5 1 0 6 9 6 2 6 12 15 16 17 18 20 22 23 23 22 19 19 19 17 19 21 19 17 16 16 16 18 20 20 22 24 21 19 17 15 14 13 12 12
3 3 3 4 3 2 1 0 3 4 2 3 3 2 1 2 3 2 2 2 4 5 3 2 0 4 4 3 5 8 8 6 5 5 4 4 5 5 4 4 5 5 5 5 3 2 3 7 10 10 8 5 6 9 11 12 14 15 17 19 19 19 20 21 23 25 26 25 23 22 24 25 23 24 25 24 23 25 24 21 19 16 15 14 13 12
2 3 3 2 4 3 1 4 3 5 6 5 3 2 3 3 4 4 2 1 2 4 4 5 3 5 4 3 5 7 7 7 6 6 4 3 4 5 4 4 4 5 5 4 3 3 4 6 8 10 11 11 10 9 9 9 10 12 13 15 16 18 22 23 25 28 28 26 27 27 29 28 24 25 28 25 24 25 25 23 22 19 16 15 14 13
3 4 3 2 1 0 4 5 4 1 5 7 3 3 4 3 3 5 4 3 2 3 2 4 3 4 4 4 5 6 6 6 5 4 2 4 5 4 5 5 5 5 5 4 3 3 4 8 13 14 14 13 10 8 8 7 9 10 11 13 15 18 22 23 26 29 29 30 30 31 32 29 25 25 27 25 24 26 26 24 23 22 19 16 15 14
2 3 4 2 2 3 5 5 5 4 5 6 3 3 3 1 2 5 5 4 4 3 2 4 1 4 4 5 5 7 7 7 6 3 5 5 4 5 5 6 6 6 6 6 5 5 8 14 17 15 14 11 8 6 6 7 9 11 12 13 16 17 19 23 26 28 29 30 30 31 33 30 25 23 26 28 26 25 26 25 23 23 21 18 18 18
0 1 4 3 2 3 3 4 5 5 3 4 2 2 2 3 5 4 2 3 3 4 4 5 2 4 3 5 8 9 10 9 9 7 6 5 5 5 6 7 7 7 8 9 9 9 11 13 14 14 14 13 10 6 5 7 9 11 12 14 16 17 17 20 25 26 26 28 28 29 30 28 25 24 27 29 26 23 24 25 23 23 23 20 18 18
2 1 3 5 4 4 4 3 3 2 1 2 2 3 3 4 4 3 2 4 3 3 3 4 4 4 4 8 11 12 11 11 10 9 8 7 6 6 6 7 8 8 9 11 11 11 10 10 11 13 15 15 15 11 6 5 8 10 11 12 14 16 15 16 20 22 24 26 27 27 27 26 25 25 24 25 24 21 21 23 23 21 20 19 16 15
4 2 3 5 4 4 5 5 4 3 3 1 2 3 3 2 2 4 4 2 4 4 2 1 4 2 5 9 11 11 11 10 9 9 9 8 7 7 7 8 9 10 10 11 11 11 10 10 11 14 16 17 18 16 12 7 6 7 9 10 11 14 15 15 16 19 22 25 25 24 23 22 23 23 22 24 26 23 20 22 22 20 18 16 13 12
5 3 2 6 5 2 2 3 3 4 4 1 1 2 3 4 5 6 5 1 4 6 0 3 3 5 3 7 8 8 9 8 8 9 8 7 8 8 9 11 13 12 11 11 11 11 10 10 10 14 17 19 20 20 18 13 8 5 6 8 9 11 13 14 16 18 21 24 24 22 22 23 24 26 25 27 28 24 21 21 20 19 18 14 10 10
6 1 1 4 6 6 5 6 6 5 5 5 5 4 5 7 7 6 3 1 2 6 4 3 7 6 2 5 6 6 6 6 7 7 7 8 9 10 12 13 13 12 11 11 10 9 9 9 9 13 18 20 22 23 22 19 14 8 5 4 6 9 11 13 15 18 20 22 22 22 23 24 26 28 27 26 26 24 23 21 19 19 15 14 17 20
5 1 0 5 6 7 8 8 7 6 5 5 7 6 5 9 9 7 3 3 5 6 6 10 12 7 2 3 4 5 5 4 5 7 9 11 10 11 12 12 11 10 10 9 8 8 8 8 10 15 19 22 24 23 23 22 19 13 8 4 2 5 9 11 13 16 19 21 22 23 24 24 24 25 26 25 25 25 24 22 22 21 15 17 24 27
4 2 1 4 6 4 5 7 8 7 6 6 7 7 6 8 9 7 4 4 7 7 6 10 12 7 2 2 4 5 4 5 9 11 11 10 9 10 12 11 10 10 9 9 8 8 8 9 12 16 19 21 23 24 24 24 22 18 12 8 3 2 5 7 9 12 16 19 21 22 23 23 23 23 24 25 25 25 25 24 24 20 17 20 25 27
3 4 1 4 5 1 0 5 6 8 9 7 5 5 6 6 5 4 3 2 3 6 6 7 7 4 1 2 4 4 5 9 11 10 9 8 8 10 12 11 10 10 9 9 10 10 9 9 11 15 17 19 22 24 25 26 26 24 19 12 6 1 3 4 6 8 11 15 20 22 22 22 23 24 24 24 23 23 23 23 20 17 18 23 26 28
2 5 4 3 4 3 4 6 7 7 7 2 2 2 2 3 5 5 4 4 2 5 7 5 4 4 3 3 4 6 8 10 9 7 6 7 7 9 9 9 9 8 8 8 9 9 10 10 12 15 17 19 21 21 22 24 26 26 24 19 13 7 1 2 5 6 8 11 17 21 20 20 22 24 23 21 21 21 21 21 19 18 20 23 24 24
2 5 4 2 4 5 4 2 3 4 3 2 4 3 2 3 6 7 4 3 4 3 4 4 5 5 5 5 6 7 7 7 6 5 5 5 6 7 8 7 7 7 7 8 8 8 10 13 16 18 19 20 23 23 22 23 23 23 23 22 19 15 10 5 4 5 7 10 15 18 18 18 20 21 20 20 20 20 21 20 19 18 19 20 20 20
3 4 3 2 4 5 3 3 3 2 4 3 5 2 3 5 7 10 8 4 5 5 5 8 8 7 6 6 6 8 7 6 6 6 6 6 5 6 7 6 6 6 6 7 7 8 11 15 18 20 20 21 23 24 24 24 23 22 22 22 20 20 17 12 9 6 4 6 11 15 17 18 19 19 17 16 16 18 19 19 18 18 18 18 18 18
4 3 2 3 3 4 3 3 4 4 3 3 4 3 3 3 3 7 7 4 4 4 3 6 6 5 5 5 4 5 5 5 6 6 6 6 5 5 6 5 5 5 5 6 7 9 11 14 15 16 17 18 21 22 23 24 23 21 21 20 19 19 18 15 13 11 9 6 5 8 11 14 16 17 16 16 16 17 18 17 17 17 17 17 16 15
4 3 3 3 2 3 4 2 0 2 3 1 1 0 0 0 0 3 4 1 2 2 1 5 5 3 3 2 1 2 2 3 5 5 4 5 5 4 4 4 4 5 7 8 10 12 13 14 15 15 17 18 19 21 21 22 22 21 21 20 19 17 15 14 14 13 11 9 9 9 7 7 10 12 14 16 16 15 13 13 14 14 14 14 13 13
4 2 3 3 1 3 5 3 2 3 2 4 5 3 2 1 3 4 5 1 2 2 1 4 4 3 2 2 1 1 3 3 2 2 3 3 4 4 4 5 6 7 10 12 14 16 17 18 18 18 18 19 19 20 20 20 21 21 20 20 19 17 15 13 12 12 11 8 7 9 9 7 6 7 10 13 12 12 11 12 12 12 12 13 13 13
7 3 3 4 2 3 5 4 2 2 3 4 5 4 4 2 4 4 5 0 3 0 2 3 4 2 2 3 2 3 4 3 1 3 4 3 3 3 3 5 7 9 11 12 14 16 17 18 19 19 20 20 20 20 20 20 20 20 19 19 19 18 17 15 13 13 12 9 8 9 9 8 7 7 10 12 13 13 14 14 14 14 13 13 14 14
6 4 3 3 2 2 4 3 2 3 2 2 4 5 4 1 4 6 2 4 3 2 2 3 5 3 2 2 3 4 4 3 3 4 4 2 3 4 3 5 7 8 10 12 13 15 16 17 18 19 20 21 20 20 20 21 21 20 19 18 17 16 16 16 16 15 13 12 12 10 8 8 10 12 14 14 15 15 16 16 16 15 14 14 14 14
4 3 2 3 2 2 3 3 0 2 3 2 4 6 3 2 4 3 4 6 1 3 3 3 4 3 1 2 3 3 2 3 3 3 4 4 5 5 5 7 8 8 10 12 14 16 17 18 18 18 19 19 19 20 20 21 21 21 20 19 17 15 15 15 15 15 14 15 15 12 8 7 9 14 16 15 15 16 16 15 15 14 14 14 14 14
2 3 3 2 2 2 2 3 1 2 3 1 4 6 2 3 3 4 4 4 3 4 3 3 4 4 2 2 2 2 2 3 3 4 5 5 4 6 8 10 12 13 15 16 17 19 20 20 20 20 20 20 19 20 20 20 20 20 20 20 19 17 16 16 16 16 15 15 14 13 11 8 8 11 14 14 14 14 13 14 14 15 14 15 15 15
1 2 2 1 1 2 2 3 2 2 2 2 3 3 2 2 4 4 2 1 2 3 2 2 3 4 3 2 1 3 3 4 4 4 5 5 5 7 11 13 15 16 18 20 20 21 20 20 20 20 21 22 22 21 20 19 20 20 19 20 19 18 18 18 17 17 17 15 14 13 12 10 8 8 11 13 14 15 14 13 13 14 14 15 15 15
1 2 1 1 0 2 2 1 2 3 4 4 1 2 2 2 4 4 4 2 1 1 1 1 2 2 2 0 2 2 2 3 3 3 5 6 7 9 12 14 16 17 19 20 22 23 23 22 22 23 23 23 22 21 20 19 20 21 20 20 19 18 19 18 18 18 18 17 15 14 14 13 11 9 9 10 11 13 14 14 14 14 14 14 13 13
1 1 2 1 1 2 2 2 2 2 3 3 4 4 3 4 3 3 4 3 0 1 1 1 2 3 1 1 3 3 2 3 4 4 4 4 5 6 9 12 14 16 17 19 21 23 23 23 24 25 27 26 23 21 19 18 18 20 22 22 21 21 21 21 20 20 19 18 17 16 16 16 16 14 11 10 10 10 10 10 11 12 12 13 13 13
1 2 3 3 2 2 3 3 2 1 2 3 4 4 4 3 2 2 4 2 1 1 1 1 1 2 2 2 2 3 3 4 5 4 4 3 4 7 9 12 13 15 16 17 19 20 21 22 23 24 26 28 27 24 22 20 18 20 23 24 25 25 25 24 24 23 21 20 19 18 16 16 18 19 17 13 12 11 9 9 10 11 13 14 14 14
1 1 3 4 3 2 2 0 0 1 1 2 2 2 2 2 1 2 3 2 2 2 1 1 1 0 1 1 1 4 4 4 4 5 5 4 5 8 11 13 15 16 17 17 18 19 19 20 20 21 23 26 28 27 26 25 23 23 24 24 26 27 28 27 26 26 24 22 20 19 18 17 16 18 20 21 20 18 16 15 13 14 17 18 18 17
1 2 3 3 2 1 2 3 1 2 2 2 1 1 2 1 2 2 2 2 2 3 2 1 2 2 1 1 2 2 3 3 3 4 5 5 6 9 12 14 17 19 19 20 20 19 19 19 20 21 22 23 25 26 27 28 28 27 26 25 24 24 26 28 27 26 25 25 23 21 20 19 17 15 16 20 24 26 25 24 20 17 16 17 17 16
1 2 2 2 3 3 1 1 2 4 4 4 3 2 3 2 1 1 2 2 3 3 3 4 3 3 4 4 4 2 1 4 5 5 5 5 6 10 13 16 18 19 21 22 22 21 21 21 21 22 23 23 24 24 25 27 29 29 28 26 24 22 22 24 24 23 24 25 24 23 21 20 19 17 14 15 18 22 24 26 28 27 24 21 19 18
2 2 2 3 4 1 2 4 4 3 1 5 5 4 4 3 3 2 1 1 1 1 3 4 4 3 4 5 3 1 2 5 6 6 5 6 9 12 16 18 19 20 21 22 23 23 23 23 23 23 24 25 24 24 25 26 28 28 27 26 24 22 20 21 22 23 24 24 23 23 21 19 18 17 15 14 14 15 18 21 25 28 30 29 26 24
2 3 3 4 4 4 6 6 6 4 1 4 4 4 4 2 4 3 2 3 3 1 2 5 4 2 1 2 3 3 5 7 8 7 6 8 13 16 17 18 19 20 21 22 21 22 22 23 23 24 25 25 25 25 26 27 27 28 27 27 25 24 23 23 23 24 25 24 22 21 19 18 17 15 14 13 12 12 14 17 19 20 23 25 25 24
Wind_Direction
115 118 176 199 210 217 213 189 174 174 136 125 130 151 194 224 272 266 259 276 144 172 250 226 209 185 210 229 213 188 158 152 160 160 177 182 172 169 171 186 198 200 204 174 170 179 181 181 176 179 185 183 185 179 176 197 208 189 181 181 179 178 174 172 171 169 172 176 176 176 179 185 186 180 168 153 135 100 87 81 81 106 129 161 192 208
67 127 227 221 204 204 198 172 146 124 107 102 130 214 272 224 249 257 253 306 85 174 254 229 177 176 217 239 228 168 163 181 185 175 181 185 180 173 173 185 195 186 150 154 165 173 179 179 172 176 182 181 184 185 185 195 197 186 184 183 178 175 173 174 174 172 176 179 179 180 179 180 181 178 167 154 138 106 99 104 109 118 121 140 150 149
27 223 243 225 180 140 119 123 128 124 111 92 109 164 267 241 271 286 272 318 333 199 266 198 133 182 251 275 268 194 185 199 194 181 179 180 180 180 182 185 183 172 155 164 172 175 180 176 171 175 181 185 189 192 193 194 189 184 183 181 177 176 175 177 178 176 179 182 184 183 179 179 180 179 173 165 159 132 114 117 125 131 128 129 126 117
286 254 249 200 145 130 112 112 115 100 91 113 128 148 250 259 310 292 281 318 334 334 300 111 94 10 308 331 267 227 214 248 148 150 154 174 186 183 176 177 179 180 175 173 176 179 179 174 173 176 182 189 192 191 190 188 185 185 184 180 177 177 178 179 180 178 179 181 184 186 183 183 182 178 175 174 170 157 129 122 125 130 131 126 118 114
224 238 172 119 139 153 151 145 132 124 227 249 184 168 219 241 208 227 282 332 342 19 70 74 55 1 347 9 254 294 331 288 90 130 150 172 178 161 157 171 180 185 182 178 181 182 179 177 177 177 182 191 192 189 187 186 187 188 185 181 179 179 180 180 180 177 177 178 180 181 178 179 181 179 178 177 170 164 158 137 118 120 125 122 119 118
246 236 154 137 172 170 158 179 180 165 187 287 226 202 204 205 219 239 324 13 27 11 16 63 65 306 323 334 256 318 334 222 224 171 180 174 165 174 184 186 183 180 186 192 186 180 176 174 174 177 184 191 192 190 189 189 191 190 186 183 181 181 180 180 180 178 177 180 181 181 178 177 179 180 184 186 175 168 168 165 153 130 113 102 109 114
254 239 145 153 167 162 164 222 219 170 134 320 243 210 187 171 206 238 60 69 87 308 321 69 109 230 320 359 265 324 330 265 281 223 196 177 180 198 202 197 188 178 183 194 185 174 174 172 172 179 186 189 191 191 190 190 191 190 188 185 183 183 181 182 183 183 183 185 185 186 185 183 184 184 186 189 183 177 176 172 168 155 132 116 110 113
205 152 76 99 107 121 161 242 226 152 120 240 236 154 139 153 183 169 104 100 181 221 329 11 87 117 328 264 244 319 50 304 283 251 229 204 198 203 203 202 196 185 183 186 182 176 179 180 181 184 187 189 191 189 189 190 190 190 190 188 186 186 184 184 186 188 191 192 189 187 185 184 185 185 183 183 184 185 189 189 181 172 154 137 125 132
193 168 159 126 98 118 195 217 189 146 137 241 208 133 134 142 137 119 100 89 7 108 313 325 29 95 270 276 306 35 95 236 263 244 234 223 212 207 202 203 199 193 189 187 187 183 183 187 187 187 187 188 189 189 190 190 189 191 191 189 187 187 187 187 189 191 195 197 191 187 186 183 181 181 179 179 183 187 193 196 186 181 176 159 154 163
235 204 193 142 122 207 218 212 178 161 175 217 155 107 74 75 77 77 91 92 34 64 228 288 351 101 256 289 327 25 84 238 252 247 237 225 222 216 206 203 196 192 192 189 189 186 187 190 190 189 187 187 188 190 191 190 189 190 190 189 189 189 189 189 191 193 195 196 193 191 190 186 180 177 177 175 177 181 187 189 182 176 172 168 175 179
279 257 186 152 187 199 180 164 179 169 144 133 109 65 44 35 32 45 52 76 62 8 253 267 299 121 234 284 257 189 233 239 252 274 252 220 222 218 205 202 197 191 188 181 174 173 176 183 188 189 188 187 189 190 191 191 191 191 190 190 190 190 189 190 193 195 194 194 196 196 195 190 183 178 176 175 175 177 181 181 175 170 167 167 176 182
331 340 241 253 227 156 112 76 48 44 74 99 84 69 70 2 11 33 358 44 92 269 259 271 287 117 140 258 217 241 280 278 268 271 254 217 214 213 200 194 193 183 175 171 170 167 159 165 180 187 189 188 187 188 191 193 193 193 192 191 191 191 190 189 191 194 194 194 197 200 199 195 189 185 183 181 179 179 179 176 169 166 164 163 168 172
325 260 267 303 273 156 115 73 22 12 36 77 83 84 95 15 12 33 310 25 158 242 261 290 295 127 210 237 215 266 276 280 268 261 265 245 225 223 211 192 178 167 167 166 160 145 127 116 117 179 196 192 191 190 191 193 195 196 194 192 192 190 188 188 188 190 192 192 195 199 199 196 192 191 191 188 186 184 181 177 172 168 165 162 164 166
309 301 314 324 286 196 133 128 144 250 95 129 134 125 125 109 88 214 266 331 219 239 277 304 291 219 266 267 303 299 280 275 271 264 265 260 245 236 215 165 143 146 146 133 105 86 73 61 44 22 5 351 325 245 201 195 196 197 196 194 192 190 189 188 187 189 192 193 195 196 197 196 194 194 195 194 193 189 186 184 180 176 172 167 166 166
195 305 277 193 257 226 157 165 165 155 150 171 156 128 144 154 144 192 214 171 194 219 295 301 278 166 207 278 310 297 290 296 297 293 284 275 251 201 156 131 128 123 112 106 99 96 103 104 92 61 16 349 335 318 273 223 203 196 195 195 193 192 192 193 194 196 196 192 190 189 189 190 193 197 198 197 200 197 193 191 189 187 183 176 173 171
157 248 257 247 282 146 179 193 135 118 105 220 135 109 153 181 142 135 169 166 165 131 37 270 237 209 207 278 312 322 347 354 357 358 9 26 45 99 113 118 121 116 116 114 108 111 109 106 112 114 131 258 264 256 250 245 225 202 194 196 199 198 197 198 197 193 188 178 172 177 182 184 189 199 201 199 208 210 204 201 200 199 194 187 182 181
142 257 281 309 1 161 195 185 140 147 172 175 122 153 215 175 119 111 129 61 80 122 191 273 274 305 330 313 326 3 19 3 3 9 19 49 73 86 97 113 118 117 116 105 101 112 107 123 168 176 190 214 226 227 232 235 225 209 199 198 199 199 200 199 194 188 181 173 168 169 171 174 182 201 213 209 214 219 215 211 209 209 204 195 190 188
146 259 291 343 92 285 238 113 81 68 127 126 176 198 193 107 97 103 112 21 46 135 248 342 324 310 3 162 329 2 11 351 351 358 360 23 72 89 97 108 116 120 117 101 81 48 265 209 203 198 200 214 223 228 233 228 216 208 204 203 202 202 203 199 190 177 161 151 149 145 147 168 184 204 238 231 228 227 222 217 216 217 214 203 196 194
124 241 292 279 168 303 351 74 62 350 44 119 169 162 118 124 141 90 117 134 105 147 266 352 354 283 196 221 327 345 326 316 330 343 352 358 22 55 60 59 72 86 96 97 82 352 299 271 161 197 222 240 241 241 237 224 212 207 204 206 208 206 200 182 156 131 120 128 139 141 152 184 200 200 212 227 232 230 225 224 221 221 222 213 203 200
108 153 274 278 194 330 3 66 140 302 6 55 83 60 44 130 155 157 138 149 145 151 189 51 10 281 218 247 307 303 287 295 306 316 332 334 349 24 48 48 51 57 59 77 97 151 324 63 61 61 57 253 242 232 223 211 205 203 200 202 203 196 181 164 157 158 157 163 172 173 182 204 212 210 215 226 231 230 228 227 224 222 226 221 214 212
80 142 223 289 335 41 30 10 188 189 127 75 67 47 14 67 115 147 96 92 129 139 165 148 202 267 249 256 287 292 293 293 278 271 282 304 340 14 38 56 63 66 59 58 82 101 72 75 84 93 99 119 161 177 186 190 193 195 194 194 189 177 169 171 177 177 173 175 186 191 197 205 212 218 226 232 232 231 229 228 225 222 225 225 222 222
113 152 182 301 6 48 299 292 251 194 156 135 138 149 151 129 124 127 118 277 110 121 164 156 172 260 276 290 293 301 301 293 269 239 240 317 1 16 23 54 73 75 70 53 37 58 67 68 73 80 86 89 97 116 139 159 173 179 180 181 177 172 175 181 182 179 181 190 195 194 194 200 211 223 230 233 235 233 230 229 226 220 221 228 228 226
138 115 98 58 30 260 273 293 304 227 116 107 104 120 130 122 110 127 170 215 100 93 154 116 122 246 280 321 327 332 321 309 287 219 141 28 10 13 18 34 49 59 73 66 45 61 73 58 50 50 56 65 74 90 112 138 158 165 170 171 169 172 180 187 186 183 187 194 194 193 194 201 214 224 227 230 234 234 232 230 228 223 219 222 227 227
113 94 82 40 324 315 298 310 329 341 70 81 53 58 97 84 91 137 174 170 126 143 149 84 103 242 296 342 353 354 352 4 15 47 79 54 16 21 31 32 34 31 36 42 40 38 42 43 42 41 43 51 67 92 117 145 161 166 169 169 167 170 181 188 187 185 189 194 195 195 198 205 217 226 229 228 228 232 235 231 228 227 221 218 222 224
152 99 101 96 33 353 325 332 336 332 28 84 71 22 68 90 88 115 136 79 108 181 159 125 189 243 296 354 7 7 8 22 25 28 57 62 33 26 28 27 26 24 22 22 24 27 31 32 32 32 34 40 50 78 125 153 167 171 171 172 174 173 179 188 189 190 195 199 200 200 204 211 220 229 234 231 228 233 238 235 230 229 227 222 221 219
112 99 104 126 147 166 186 229 251 249 28 79 92 36 56 94 101 136 124 79 129 185 129 131 189 237 323 357 5 6 9 16 14 16 31 37 31 29 32 33 30 27 26 23 23 25 25 25 24 23 28 34 41 52 80 132 163 173 174 179 184 186 189 192 196 200 203 205 206 209 214 219 223 228 232 232 235 239 238 233 230 227 225 224 222 217
104 66 71 111 136 179 194 225 231 147 106 119 135 67 43 49 76 103 100 116 171 146 63 158 168 118 360 353 356 357 4 11 10 15 24 24 24 32 38 40 37 33 30 27 27 25 21 20 16 16 22 29 37 46 55 74 122 160 177 186 194 200 204 205 206 210 211 211 212 216 220 224 225 228 227 226 233 241 235 225 222 218 213 211 214 215
95 45 40 85 60 12 226 278 332 79 86 64 99 62 32 25 49 84 96 165 150 123 110 263 121 92 1 337 345 348 355 8 14 19 26 28 30 40 45 43 40 36 33 32 30 26 23 20 14 15 21 25 32 40 45 51 67 105 155 182 196 204 210 212 211 212 211 211 212 213 215 219 221 224 224 220 224 231 224 215 212 206 197 194 211 234
104 50 289 92 50 22 17 359 12 72 77 34 25 23 35 46 57 84 99 325 110 134 180 156 93 87 349 332 342 344 349 7 23 30 38 41 41 48 51 48 44 38 36 36 31 27 27 24 19 21 24 27 30 34 37 41 44 51 77 144 183 196 204 210 211 209 206 204 205 208 212 217 219 219 219 215 214 213 207 205 204 199 197 208 229 242
103 38 286 105 67 23 13 7 19 62 83 51 25 16 52 74 72 76 74 34 67 101 128 112 94 80 359 331 345 345 343 15 48 48 47 46 45 51 55 52 46 40 37 35 28 26 29 27 26 28 28 28 28 29 33 37 41 41 42 50 134 184 191 199 205 206 203 202 203 208 212 213 209 207 207 205 203 199 195 195 194 193 200 212 220 231
93 133 210 99 77 24 13 31 34 47 70 64 31 10 38 74 73 64 69 74 75 83 103 105 97 80 11 355 10 358 360 54 62 53 49 47 43 52 58 52 45 39 32 28 24 21 21 23 25 27 28 27 26 28 30 32 38 43 39 34 31 181 186 193 197 196 199 203 204 205 207 204 199 196 193 190 188 187 186 185 184 188 199 203 209 224
75 126 149 81 96 189 32 98 91 74 67 55 21 351 3 44 74 68 50 55 104 134 130 106 103 116 136 53 41 27 43 62 61 55 55 53 46 52 57 52 46 41 32 28 25 22 20 18 18 19 20 22 25 28 29 29 34 37 35 33 27 4 205 211 210 198 198 200 198 198 199 197 191 185 182 181 183 185 185 186 191 199 203 201 207 218
93 137 151 111 122 177 189 151 128 100 87 53 301 293 16 76 108 91 41 7 29 138 147 140 148 165 153 107 87 63 57 62 59 50 53 55 51 55 58 54 49 42 37 34 29 27 25 21 19 17 15 17 21 24 26 28 31 33 33 34 32 26 5 254 254 243 231 212 199 197 199 198 192 188 190 197 203 204 200 202 209 212 208 206 209 213
83 125 149 136 123 158 186 153 87 103 149 238 282 254 184 139 124 112 87 6 13 69 131 130 126 130 118 110 108 92 78 75 68 54 52 56 56 56 54 51 48 40 36 35 32 28 25 23 24 22 21 22 22 20 22 24 26 28 32 35 34 32 30 14 331 284 257 237 219 212 211 211 207 205 209 215 217 213 208 206 206 207 206 207 208 210
73 88 123 96 107 141 146 78 93 191 231 289 317 310 121 120 119 109 92 45 28 56 93 102 109 125 131 129 125 113 106 102 86 63 47 43 49 60 55 42 35 33 27 26 26 22 19 22 24 22 22 26 27 23 22 20 18 19 24 29 31 31 32 31 22 8 325 256 237 229 227 226 225 224 223 222 217 211 207 206 206 207 207 206 206 210
114 116 117 79 93 134 117 111 161 225 282 351 10 29 91 105 98 89 75 31 10 29 80 108 116 135 140 143 150 135 121 105 82 64 47 38 37 51 57 44 30 28 21 14 14 12 14 20 24 21 17 21 27 26 21 17 13 12 15 20 25 29 33 38 36 26 13 349 297 260 245 239 238 237 233 227 222 217 215 214 211 207 206 205 208 215
112 126 117 80 88 132 125 134 194 354 355 73 112 313 147 73 338 112 110 51 333 351 83 123 118 116 128 140 210 191 150 90 58 39 23 29 29 30 36 29 20 18 10 6 6 8 10 13 15 16 11 11 17 20 16 12 9 8 10 12 15 18 23 31 37 33 18 358 339 325 302 264 247 242 232 224 221 218 213 208 203 201 201 201 202 207
57 90 156 144 129 103 102 91 39 22 302 220 209 250 305 284 208 155 115 90 293 324 46 126 118 90 84 69 339 204 132 95 56 338 323 351 11 10 5 2 7 10 7 5 4 3 6 6 5 4 3 2 6 9 8 4 1 2 5 7 7 7 5 7 13 16 14 9 350 333 318 291 260 240 223 212 206 199 193 187 184 183 183 182 178 174
40 33 94 113 115 106 110 123 158 188 231 223 215 261 300 250 184 115 79 278 242 205 63 112 117 96 76 65 43 75 92 95 232 262 272 303 339 342 333 338 354 4 5 7 6 2 1 1 357 356 358 358 358 360 358 355 353 354 357 359 0 359 356 350 343 339 343 352 352 336 312 283 254 226 208 197 186 180 177 173 168 164 161 163 163 158
27 18 44 91 126 124 116 131 187 204 233 245 239 269 284 194 119 91 98 245 233 122 103 125 132 143 136 72 49 69 97 150 214 246 258 292 334 331 328 338 348 357 1 7 8 3 360 358 355 353 355 354 352 350 349 347 345 343 345 347 348 349 349 345 337 327 318 314 318 319 308 278 243 217 205 197 187 180 177 172 167 164 162 162 162 158
14 19 51 110 104 79 106 115 348 258 249 257 275 284 284 124 107 121 203 227 200 103 124 139 150 173 158 63 59 87 143 204 231 276 307 339 344 333 338 347 350 357 2 5 5 3 360 357 353 349 347 346 344 341 341 341 337 333 333 333 331 333 338 338 334 329 319 308 302 295 290 280 242 219 215 213 199 186 182 180 176 172 169 167 165 161
17 19 26 68 66 53 108 109 61 272 258 300 301 295 313 124 166 210 213 208 159 141 152 156 172 186 158 100 119 164 239 295 309 316 324 333 330 327 340 351 355 358 358 357 359 359 356 350 346 342 337 336 334 331 332 332 328 325 325 321 318 321 326 326 326 326 322 315 304 284 267 266 254 231 225 222 208 193 187 185 183 179 175 171 167 161
78 68 28 46 84 67 68 73 93 202 267 338 323 307 6 116 185 194 153 125 152 156 163 181 194 187 158 122 182 216 255 297 308 315 324 333 338 343 350 355 355 352 349 348 349 349 347 341 335 331 328 327 326 325 326 326 321 319 317 313 313 318 321 319 319 319 317 315 308 287 262 254 258 244 226 216 209 206 203 196 187 182 179 176 171 165
37 106 156 221 89 98 113 130 168 213 276 314 46 110 74 100 157 155 122 103 133 151 165 255 279 249 162 104 326 297 276 297 318 345 349 345 346 347 347 347 346 342 340 339 337 337 336 332 326 322 320 319 319 318 319 319 317 315 311 307 308 313 315 314 315 314 313 311 307 293 273 261 256 242 222 209 203 200 198 196 192 189 187 186 181 173
354 90 128 121 56 94 131 162 173 216 294 344 61 92 90 85 96 122 116 110 167 203 164 203 309 326 353 354 341 344 331 320 338 1 359 336 326 329 330 329 329 329 328 328 328 329 328 325 321 319 316 315 315 313 311 310 309 305 302 301 303 305 306 308 310 310 309 307 304 299 287 272 259 245 230 217 211 206 199 194 191 187 185 187 188 182
345 55 73 89 111 87 61 46 44 50 18 26 49 69 86 85 71 90 106 115 241 223 123 133 251 308 337 17 359 329 318 330 342 341 336 326 314 316 319 319 320 321 320 319 320 321 320 317 314 313 311 310 311 311 308 304 298 292 292 294 296 298 300 303 304 304 303 300 298 297 293 281 265 253 245 240 239 236 229 221 213 206 201 197 193 189
299 69 67 86 119 116 90 162 234 67 46 28 51 83 110 104 100 116 138 198 213 149 134 190 178 152 21 72 274 287 302 336 345 327 321 323 318 320 322 318 316 317 315 313 315 316 314 311 307 305 303 303 304 306 306 303 297 291 290 291 292 293 295 297 298 299 297 294 291 290 288 284 274 259 250 252 255 254 253 250 237 219 210 204 197 191
299 90 86 87 90 93 160 192 206 15 341 323 39 153 181 140 92 98 144 179 159 132 131 134 125 128 123 166 214 252 294 311 305 304 311 313 310 313 314 312 312 314 314 314 315 315 312 308 304 302 300 298 299 301 300 298 297 295 294 292 291 291 292 291 291 292 290 287 285 283 281 279 275 266 257 254 252 251 252 254 247 232 217 206 198 193
8 72 110 107 79 63 90 148 62 24 343 310 302 281 261 229 158 57 53 96 129 132 105 81 85 132 147 151 160 162 304 294 282 284 294 299 304 307 308 310 312 313 314 315 316 316 312 308 305 303 301 299 300 299 295 293 294 295 294 293 292 291 287 284 284 286 284 281 279 278 277 274 270 267 266 261 252 247 246 245 243 237 228 218 214 218
46 99 134 102 98 131 221 193 159 123 263 261 254 259 264 227 158 117 42 56 214 195 124 95 77 99 131 148 163 178 303 297 294 295 291 292 301 306 309 312 313 313 313 314 314 313 311 309 307 305 302 301 301 298 294 292 292 292 292 291 290 287 279 275 279 282 281 279 277 275 273 270 265 263 264 266 263 254 242 234 231 229 226 224 225 229
106 152 165 136 150 215 226 195 165 138 176 235 228 237 256 194 135 146 227 251 273 286 138 126 112 108 182 247 270 283 289 291 295 299 294 293 300 305 309 311 311 310 311 311 310 309 308 307 306 302 300 300 300 297 294 292 290 289 288 285 283 279 273 271 274 276 275 275 274 272 270 267 264 264 263 262 263 254 233 220 216 217 218 218 217 217